This is the latest recevied weather packets stored in our database for station/object LU2DKV-10. If no packets are shown the sender has not sent any weather packets the latest 10 day(s).
| Time | Temp. | Humidity | Pressure | Rain* | Wind** | Luminosity | Snow |
|---|---|---|---|---|---|---|---|
| 1777949198 | 15.56° C | 80% | 1011 hPa | - | - | 0 W/m² | - |
| 1777947376 | 16.11° C | 80% | 1012 hPa | - | - | 0 W/m² | - |
| 1777945554 | 16.11° C | 80% | 1011 hPa | - | - | 0 W/m² | - |
| 1777943732 | 16.67° C | 86% | 1011 hPa | - | - | 0 W/m² | - |
| 1777941910 | 17.22° C | 85% | 1011 hPa | - | - | 0 W/m² | - |
| 1777940088 | 17.78° C | 80% | 1010 hPa | - | - | 0 W/m² | - |
| 1777938266 | 17.78° C | 81% | 1011 hPa | - | - | 0 W/m² | - |
| 1777936444 | 17.78° C | 78% | 1010 hPa | - | - | 0 W/m² | - |
| 1777934622 | 17.22° C | 63% | 1010 hPa | - | - | 0 W/m² | - |
| 1777932800 | 17.78° C | 59% | 1010 hPa | - | - | 0 W/m² | - |
| 1777930978 | 18.33° C | 55% | 1010 hPa | - | - | 0 W/m² | - |
| 1777929156 | 18.89° C | 51% | 1009 hPa | - | - | 0 W/m² | - |
| 1777927334 | 19.44° C | 48% | 1009 hPa | - | - | 0 W/m² | - |
| 1777925512 | 20° C | 44% | 1009 hPa | - | - | 0 W/m² | - |
| 1777923690 | 20° C | 43% | 1009 hPa | - | - | 0 W/m² | - |
| 1777921868 | 20.56° C | 42% | 1009 hPa | - | - | 0 W/m² | - |
| 1777920046 | 20° C | 43% | 1009 hPa | - | - | 0 W/m² | - |
| 1777918224 | 19.44° C | 44% | 1009 hPa | - | - | 0 W/m² | - |
| 1777916402 | 19.44° C | 43% | 1010 hPa | - | - | 0 W/m² | - |
| 1777914580 | 19.44° C | 44% | 1011 hPa | - | - | 0 W/m² | - |
| 1777912758 | 18.89° C | 46% | 1011 hPa | - | - | 0 W/m² | - |
| 1777910936 | 18.89° C | 49% | 1012 hPa | - | - | 0 W/m² | - |
| 1777909114 | 18.33° C | 47% | 1012 hPa | - | - | 0 W/m² | - |
| 1777907292 | 17.78° C | 49% | 1013 hPa | - | - | 0 W/m² | - |
| 1777905470 | 17.78° C | 50% | 1012 hPa | - | - | 0 W/m² | - |
* Rain since midnight (hover to see other rain measurements)
** Current wind speed in m/s (hover to see current wind gust speed)